Branson, MO

9:57 PM CDT on March 22, 2017 (GMT -0500)
Branson

Weather History for KBBG - August, 2013

Change the Weather History Date:

Saturday, August 24, 2013

  Actual Average (KHRO) Record (KHRO)
Temperature  
Mean Temperature 78 °F -  
Max Temperature 87 °F 88 °F 105 °F (1943)
Min Temperature 69 °F 65 °F 51 °F (1949)
Cooling Degree Days 13    
Growing Degree Days 28 (Base 50)    
Moisture  
Dew Point 69 °F    
Average Humidity 79    
Maximum Humidity 100    
Minimum Humidity 49    
Precipitation  
Precipitation 0.00 in - - ()
Sea Level Pressure  
Sea Level Pressure 30.16 in    
Wind  
Wind Speed 3 mph (ESE)    
Max Wind Speed 12 mph    
Max Gust Speed -    
Visibility 8 miles    
Events      
Averages and records for this station are not official NWS values.
T = Trace of Precipitation, MM = Missing Value Source: NWS Daily Summary

Daily Weather History Graph

Daily Weather History Graph

Search for Another Location

Airport or City:

Trip Planner

Search our weather history database for the weather conditions in past years. The results will help you decide how hot, cold, wet, or windy it might be!

Date:

Astronomy

Aug. 24, 2013 Rise Set
Actual Time 6:37 AM CDT 7:51 PM CDT
Civil Twilight 6:11 AM CDT 8:18 PM CDT
Nautical Twilight 5:39 AM CDT 8:50 PM CDT
Astronomical Twilight 5:05 AM CDT 9:23 PM CDT
Moon 9:55 PM CDT (8/24) 10:29 AM CDT (8/24)
Length of Visible Light 14h 07m
Length of Day
13h 13m
Waning Gibbous, 84% of the Moon is Illuminated
Aug 24
Waning Gibbous
Aug 28
Last Quarter
Sep 5
New
Sep 12
First Quarter
Sep 19
Full

Hourly Weather History & Observations

Time (CDT) Temp. Heat Index Dew Point Humidity Pressure Visibility Wind Dir Wind Speed Gust Speed Precip Events Conditions
12:15 AM 75.2 °F - 68.0 °F 78% 30.11 in 10.0 mi Calm Calm - N/A   Clear
12:35 AM 75.2 °F - 68.0 °F 78% 30.11 in 10.0 mi Calm Calm - N/A   Clear
12:55 AM 75.2 °F - 68.0 °F 78% 30.11 in 10.0 mi SSE 6.9 mph - N/A   Clear
1:15 AM 73.4 °F - 68.0 °F 83% 30.12 in 10.0 mi SE 6.9 mph - N/A   Clear
1:35 AM 75.2 °F - 68.0 °F 78% 30.12 in 10.0 mi SSE 5.8 mph - N/A   Clear
1:55 AM 73.4 °F - 68.0 °F 83% 30.12 in 10.0 mi SE 6.9 mph - N/A   Clear
2:15 AM 73.4 °F - 68.0 °F 83% 30.12 in 10.0 mi SE 4.6 mph - N/A   Clear
2:35 AM 73.4 °F - 68.0 °F 83% 30.12 in 10.0 mi Calm Calm - N/A   Clear
2:55 AM 73.4 °F - 68.0 °F 83% 30.12 in 10.0 mi Calm Calm - N/A   Clear
3:15 AM 73.4 °F - 68.0 °F 83% 30.13 in 10.0 mi Calm Calm - N/A   Clear
3:35 AM 71.6 °F - 68.0 °F 88% 30.14 in 10.0 mi Calm Calm - N/A   Clear
3:55 AM 71.6 °F - 69.8 °F 94% 30.14 in 10.0 mi Calm Calm - N/A   Clear
4:15 AM 71.6 °F - 69.8 °F 94% 30.14 in 9.0 mi Calm Calm - N/A   Clear
4:35 AM 71.6 °F - 69.8 °F 94% 30.15 in 5.0 mi Calm Calm - N/A   Clear
4:55 AM 69.8 °F - 68.0 °F 94% 30.15 in 5.0 mi Calm Calm - N/A   Clear
5:15 AM 71.6 °F - 69.8 °F 94% 30.15 in 5.0 mi Calm Calm - N/A   Clear
5:35 AM 71.6 °F - 69.8 °F 94% 30.16 in 4.0 mi Calm Calm - N/A   Clear
5:55 AM 71.6 °F - 71.6 °F 100% 30.16 in 2.5 mi Calm Calm - N/A   Clear
6:15 AM 71.6 °F - 71.6 °F 100% 30.16 in 0.8 mi Calm Calm - N/A   Mostly Cloudy
6:35 AM 69.8 °F - 69.8 °F 100% 30.17 in 1.0 mi Calm Calm - N/A   Mostly Cloudy
6:45 AM 69.8 °F - 69.8 °F 100% 30.17 in 3.0 mi Calm Calm - N/A   Clear
7:45 AM 71.6 °F - 71.6 °F 100% 30.19 in 3.0 mi Calm Calm - N/A   Clear
8:50 AM 75.2 °F - 71.6 °F 89% 30.21 in 7.0 mi Calm Calm - N/A   Clear
9:50 AM 78.8 °F - 71.6 °F 78% 30.21 in 10.0 mi East 6.9 mph - N/A   Clear
10:50 AM 82.4 °F 87.2 °F 71.6 °F 70% 30.22 in 10.0 mi East 6.9 mph - N/A   Clear
11:50 AM 84.2 °F 89.6 °F 71.6 °F 66% 30.21 in 10.0 mi East 11.5 mph - N/A   Clear
12:45 PM 86.0 °F 90.4 °F 69.8 °F 58% 30.20 in 10.0 mi East 6.9 mph - N/A   Partly Cloudy
1:51 PM 86.0 °F 89.4 °F 68.0 °F 55% 30.18 in 10.0 mi ENE 6.9 mph - N/A   Scattered Clouds
2:45 PM 86.0 °F 89.4 °F 68.0 °F 55% 30.18 in 8.0 mi ESE 4.6 mph - N/A   Partly Cloudy
3:45 PM 87.8 °F 90.4 °F 66.2 °F 49% 30.17 in 8.0 mi ESE 6.9 mph - N/A   Scattered Clouds
4:50 PM 87.8 °F 90.4 °F 66.2 °F 49% 30.16 in 10.0 mi SE 8.1 mph - N/A   Partly Cloudy
5:50 PM 86.0 °F 88.2 °F 66.2 °F 51% 30.16 in 10.0 mi ESE 9.2 mph - N/A   Scattered Clouds
6:51 PM 84.2 °F 86.6 °F 66.2 °F 55% 30.15 in 10.0 mi East 5.8 mph - N/A   Partly Cloudy
7:47 PM 78.8 °F - 68.0 °F 69% 30.15 in 10.0 mi East 6.9 mph - N/A   Partly Cloudy
8:46 PM 77.0 °F - 66.2 °F 69% 30.16 in 10.0 mi ESE 4.6 mph - N/A   Clear
9:15 PM 75.2 °F - 66.2 °F 73% 30.18 in 10.0 mi Calm Calm - N/A   Clear
9:35 PM 75.2 °F - 68.0 °F 78% 30.19 in 10.0 mi Calm Calm - N/A   Clear
9:55 PM 75.2 °F - 68.0 °F 78% 30.20 in 10.0 mi ESE 6.9 mph - N/A   Clear
10:15 PM 75.2 °F - 68.0 °F 78% 30.20 in 10.0 mi ESE 6.9 mph - N/A   Clear
10:35 PM 75.2 °F - 68.0 °F 78% 30.21 in 10.0 mi ESE 6.9 mph - N/A   Clear
10:55 PM 75.2 °F - 68.0 °F 78% 30.20 in 10.0 mi ESE 5.8 mph - N/A   Clear
11:15 PM 75.2 °F - 68.0 °F 78% 30.21 in 10.0 mi ESE 5.8 mph - N/A   Clear
11:35 PM 75.2 °F - 68.0 °F 78% 30.21 in 10.0 mi Calm Calm - N/A   Clear
11:55 PM 75.2 °F - 68.0 °F 78% 30.21 in 10.0 mi SE 8.1 mph - N/A   Clear